Location: Newark
(34.0131°N, 4.3314°W)
Time: 15:03:08
(UTC+00:00)

Explorer 7 - Pass Details

Date: 14 October 2019
Orbit: 485 x 680 km, 50.3° (Epoch: 20 November)

Event Time Altitude Azimuth Distance (km) Brightness Sun altitude
Rises 14:27:16 0° 269° (W) 2,540 10.8 35.8°
Reaches altitude 10° 14:29:57 10° 289° (WNW) 1,671 9.7 35.4°
Maximum altitude 14:32:35 18° 334° (NNW) 1,274 8.7 35.0°
Drops below altitude 10° 14:35:17 10° 18° (NNE) 1,711 9.0 34.6°
Sets 14:38:05 0° 38° (NE) 2,629 9.8 34.1°
